Tracking 17844 objects as of 25-August-2016
HD Live streaming from Space Station
objects crossing your sky now

ASTRA 1D

Track ASTRA 1D now!
ASTRA 1D is classified as:


NORAD ID: 23331
Int'l Code: 1994-070A
Perigee: 35,779.8 km
Apogee: 35,806.7 km
Inclination: 7.1 °
Period: 1,436.1 minutes
Semi major axis: 42164 km
RCS: 75.2376 m2 (large)
Launch date: November 1, 1994
Source: Luxembourg (LUXE)
Launch site: FRENCH GUIANA (FRGUI)

Primarily backup for Astra 1B and 1C; 18 Ku-band transponders; continental Europe.
Your satellite tracking list
Your tracking list is empty





NASA's NSSDC Master Catalog

Two Line Element Set (TLE):
1 23331U 94070A   16238.34797307 -.00000310  00000-0  00000+0 0  9996
2 23331   7.1029  51.4965 0003197  96.1818 264.3247  1.00273585 80249
Source of the keplerian elements: AFSPC

N2YO: 764